Location: Écuvilly
(49.6505°N, 2.9206°E)
Time: 17:55:13
(UTC+00:00)

CZ-4C R/B - Pass Details

Date: 17 November 2025
Orbit: 487 x 1492 km, 63.4° (Epoch: 10 December)

Event Time Altitude Azimuth Distance (km) Brightness Sun altitude
Rises 18:13:29 0° 284° (WNW) 3,049 6.4 -20.9°
Reaches altitude 10° 18:16:04 10° 300° (WNW) 2,279 5.2 -21.3°
Maximum altitude 18:20:16 23° 353° (N) 1,770 3.9 -22.0°
Enters shadow 18:22:49 18° 25° (NNE) 2,146 4.0 -22.4°
